DW4725 Weather Reports


Display with metric or nautical units.
time (UTC)temp
F
wind
direction
speed
MPH
gust
MPH
rain 1hr
in
rain 24hr
in
rain mn
in
humidity
%
barometer
mb
20210806025000 57 267 5.0 14.0 0.00 0.07 0.00 93 1010.2
20210806024801 57 218 5.0 14.0 0.00 0.07 0.00 93 1010.2
20210806024554 57 230 5.0 14.0 0.00 0.07 0.00 93 1010.3
20210806024344 57 252 5.0 14.0 0.00 0.07 0.00 93 1010.3
20210806024144 57 248 5.0 14.0 0.00 0.07 0.00 93 1010.3
20210806023938 57 249 4.0 11.0 0.00 0.07 0.00 93 1010.2
20210806023734 57 237 5.0 11.0 0.00 0.07 0.00 93 1010.2
20210806023523 57 262 5.0 11.0 0.00 0.07 0.00 93 1010.1
20210806023321 57 236 5.0 11.0 0.00 0.07 0.00 93 1010.2
20210806023114 57 234 5.0 11.0 0.00 0.07 0.00 93 1010.2
20210806022912 57 203 5.0 11.0 0.00 0.07 0.00 93 1010.1
20210806022705 57 249 5.0 11.0 0.00 0.07 0.00 94 1010.2
20210806022456 57 233 4.0 11.0 0.00 0.07 0.00 94 1010.1
20210806022253 57 255 4.0 11.0 0.00 0.07 0.00 94 1010.1
20210806022046 56 216 4.0 11.0 0.00 0.07 0.00 94 1010.2
20210806021839 56 224 3.0 9.0 0.00 0.07 0.00 93 1010.2
20210806021634 57 254 3.0 9.0 0.00 0.07 0.00 93 1010.2
20210806021429 57 245 3.0 9.0 0.00 0.07 0.00 93 1010.1
20210806021222 57 279 2.0 9.0 0.00 0.07 0.00 93 1010.2
20210806021023 57 263 3.0 9.0 0.00 0.07 0.00 93 1010.1
20210806020813 57 252 3.0 9.0 0.00 0.07 0.00 93 1010.1
20210806020607 57 293 3.0 9.0 0.00 0.07 0.00 93 1010.1
20210806020406 57 229 3.0 9.0 0.00 0.07 0.00 93 1010.1
20210806020157 57 218 3.0 9.0 0.00 0.07 0.00 93 1010.2
20210806015947 57 225 3.0 9.0 0.00 0.07 0.00 92 1010.2
20210806015740 57 264 3.0 9.0 0.00 0.07 0.00 92 1010.1
20210806015537 57 205 3.0 9.0 0.00 0.07 0.00 92 1010.1
20210806015336 57 225 4.0 9.0 0.00 0.07 0.00 92 1010.1
20210806015131 57 247 4.0 9.0 0.00 0.07 0.00 91 1010.1
20210806014929 57 224 3.0 8.0 0.00 0.07 0.00 91 1010.1
20210806014727 57 255 4.0 10.0 0.00 0.07 0.00 91 1010.2
20210806014528 57 271 4.0 10.0 0.00 0.07 0.00 91 1010.1
20210806014329 57 228 3.0 10.0 0.00 0.07 0.00 91 1010.1
20210806014124 57 256 4.0 10.0 0.00 0.07 0.00 91 1010.1
20210806013919 57 229 5.0 10.0 0.00 0.07 0.00 91 1010.1
20210806013719 57 274 5.0 10.0 0.00 0.07 0.00 91 1010.1
20210806013520 57 249 4.0 10.0 0.00 0.07 0.00 90 1010.2
20210806013314 57 246 4.0 10.0 0.00 0.07 0.00 90 1010.1
20210806013111 58 263 4.0 10.0 0.00 0.07 0.00 89 1010.2
20210806012902 58 233 2.0 9.0 0.00 0.07 0.00 88 1010.2
20210806012704 58 246 2.0 6.0 0.00 0.07 0.00 87 1010.4
20210806012501 58 257 1.0 5.0 0.00 0.07 0.00 86 1010.2
20210806012306 58 255 1.0 8.0 0.00 0.07 0.00 85 1010.2
20210806012101 58 248 0.0 8.0 0.00 0.07 0.00 85 1010.2
20210806011857 58 283 0.0 8.0 0.00 0.07 0.00 84 1010.2
20210806011657 58 247 1.0 8.0 0.00 0.07 0.00 84 1010.2
20210806011450 58 221 1.0 8.0 0.00 0.07 0.00 83 1010.3
20210806011251 59 262 1.0 8.0 0.00 0.07 0.00 83 1010.2
20210806011043 59 182 2.0 8.0 0.00 0.07 0.00 83 1010.2
20210806010836 59 233 2.0 8.0 0.00 0.07 0.00 83 1010.2
20210806010628 59 219 2.0 8.0 0.00 0.07 0.00 82 1010.2
20210806010418 59 242 2.0 8.0 0.00 0.07 0.00 83 1010.2
20210806010211 59 169 2.0 7.0 0.00 0.07 0.00 83 1010.2
20210806010010 59 276 2.0 7.0 0.00 0.08 0.00 83 1010.2
20210806005801 58 240 1.0 5.0 0.00 0.08 0.00 83 1010.1
20210806005551 58 250 1.0 7.0 0.00 0.09 0.00 84 1010.2
20210806005349 58 223 1.0 7.0 0.00 0.09 0.00 84 1010.2
20210806005141 58 230 1.0 7.0 0.00 0.09 0.00 84 1010.2
20210806004938 58 238 1.0 7.0 0.00 0.09 0.00 84 1010.3
20210806004739 58 230 1.0 7.0 0.00 0.09 0.00 85 1010.3
20210806004534 58 244 1.0 7.0 0.00 0.09 0.00 85 1010.4
20210806004328 58 218 1.0 7.0 0.00 0.09 0.00 85 1010.5
20210806004128 58 278 1.0 7.0 0.00 0.09 0.00 84 1010.4
20210806003920 58 248 1.0 7.0 0.00 0.09 0.00 84 1010.5
20210806003717 59 237 1.0 7.0 0.00 0.09 0.00 84 1010.5
20210806003517 59 248 1.0 5.0 0.00 0.09 0.00 83 1010.5
20210806003310 59 281 1.0 5.0 0.00 0.09 0.00 82 1010.5
20210806003107 59 281 1.0 5.0 0.00 0.09 0.00 82 1010.5
20210806002903 58 226 0.0 5.0 0.00 0.09 0.00 82 1010.5
20210806002704 58 271 0.0 4.0 0.00 0.09 0.00 82 1010.5
20210806002504 58 248 0.0 4.0 0.00 0.09 0.00 83 1010.5
20210806002259 58 254 1.0 4.0 0.00 0.09 0.00 83 1010.6
20210806002054 58 258 1.0 4.0 0.00 0.09 0.00 82 1010.6
20210806001846 59 234 1.0 4.0 0.00 0.09 0.00 81 1010.6
20210806001645 59 205 0.0 4.0 0.00 0.09 0.00 81 1010.6
20210806001440 58 231 0.0 3.0 0.00 0.09 0.00 81 1010.5
20210806001238 58 217 0.0 2.0 0.00 0.09 0.00 81 1010.7
20210806001038 59 237 0.0 2.0 0.00 0.09 0.00 81 1010.7
20210806000839 59 205 0.0 2.0 0.00 0.09 0.00 81 1010.7
20210806000638 59 154 0.0 0.0 0.00 0.09 0.00 81 1010.6
20210806000438 59 234 0.0 4.0 0.00 0.09 0.00 80 1010.8
20210806000237 59 233 0.0 4.0 0.00 0.09 0.00 80 1010.8
20210806000030 59 294 0.0 4.0 0.00 0.09 0.00 80 1010.9
20210805235822 59 192 0.0 4.0 0.00 0.09 0.00 80 1010.8
20210805235614 59 281 0.0 6.0 0.00 0.09 0.00 80 1010.8
20210805235410 59 231 1.0 6.0 0.00 0.09 0.00 80 1010.8
20210805235204 59 229 1.0 6.0 0.00 0.09 0.00 79 1011.0
20210805234958 59 213 1.0 6.0 0.00 0.09 0.00 79 1011.0
20210805234748 59 91 1.0 6.0 0.00 0.09 0.00 79 1011.0
20210805234548 59 207 1.0 7.0 0.00 0.09 0.00 78 1011.1
20210805234339 59 253 1.0 7.0 0.00 0.09 0.00 78 1011.0
20210805234129 59 259 2.0 7.0 0.00 0.09 0.00 78 1011.0
20210805233921 59 263 2.0 7.0 0.00 0.09 0.00 78 1011.1
20210805233714 59 153 2.0 7.0 0.00 0.09 0.00 78 1011.1
20210805233514 59 276 2.0 7.0 0.00 0.09 0.00 78 1011.1
20210805233304 59 246 2.0 7.0 0.00 0.09 0.00 78 1011.2
20210805233054 59 222 2.0 7.0 0.00 0.09 0.00 78 1011.1
20210805232852 59 224 2.0 7.0 0.00 0.09 0.00 78 1011.2
20210805232650 59 247 2.0 6.0 0.00 0.09 0.00 78 1011.2
20210805232445 59 207 1.0 6.0 0.00 0.09 0.00 78 1011.2
20210805232238 59 237 1.0 6.0 0.00 0.09 0.00 77 1011.2
20210805232028 59 253 1.0 6.0 0.00 0.09 0.00 78 1011.3
20210805231829 59 216 1.0 4.0 0.00 0.09 0.00 78 1011.3
20210805231620 59 259 1.0 4.0 0.00 0.09 0.00 78 1011.3
20210805231416 59 265 1.0 4.0 0.00 0.09 0.00 78 1011.3
20210805231207 59 231 1.0 4.0 0.00 0.09 0.00 78 1011.3
20210805230958 59 181 1.0 7.0 0.00 0.09 0.00 78 1011.2
20210805230758 59 252 1.0 7.0 0.00 0.09 0.00 78 1011.2
20210805230558 59 176 1.0 7.0 0.00 0.09 0.00 78 1011.2
20210805230354 59 242 1.0 7.0 0.00 0.09 0.00 78 1011.2
20210805230148 59 215 1.0 7.0 0.00 0.09 0.00 79 1011.2
20210805225938 59 229 1.0 7.0 0.00 0.09 0.00 79 1011.1
20210805225728 59 270 1.0 7.0 0.00 0.09 0.00 79 1011.2
20210805225528 59 192 1.0 7.0 0.00 0.09 0.00 79 1011.1
20210805225320 59 131 1.0 7.0 0.00 0.09 0.00 79 1011.4
20210805225117 59 255 1.0 7.0 0.00 0.09 0.00 79 1011.3
20210805224918 59 213 1.0 6.0 0.00 0.09 0.00 80 1011.4
20210805224718 59 232 0.0 5.0 0.00 0.09 0.00 80 1011.4
20210805224512 59 224 0.0 5.0 0.00 0.09 0.00 81 1011.4
20210805224313 59 183 0.0 5.0 0.00 0.09 0.00 81 1011.5
20210805224103 59 245 1.0 5.0 0.00 0.09 0.00 81 1011.6
20210805223856 58 220 1.0 5.0 0.00 0.09 0.00 81 1011.6
20210805223654 58 257 1.0 5.0 0.00 0.09 0.00 81 1011.6
20210805223446 58 221 1.0 5.0 0.00 0.09 0.00 82 1011.6
20210805223241 58 243 1.0 5.0 0.00 0.09 0.00 82 1011.7
20210805223037 58 239 1.0 4.0 0.00 0.09 0.00 82 1011.7
20210805222828 58 219 1.0 4.0 0.00 0.09 0.00 82 1011.8
20210805222620 58 224 0.0 4.0 0.00 0.09 0.00 82 1011.7
20210805222413 58 288 0.0 4.0 0.00 0.09 0.00 82 1011.8
20210805222203 58 262 0.0 4.0 0.00 0.09 0.00 81 1011.8
20210805221957 58 272 0.0 4.0 0.00 0.09 0.00 81 1011.8
20210805221753 58 207 1.0 4.0 0.00 0.09 0.00 81 1011.8
20210805221550 59 198 1.0 5.0 0.00 0.09 0.00 80 1011.8
20210805221346 59 287 1.0 5.0 0.00 0.09 0.00 80 1011.9
20210805221137 58 248 1.0 5.0 0.00 0.09 0.00 80 1011.9
20210805220928 58 223 1.0 5.0 0.00 0.09 0.00 80 1011.9
20210805220722 58 254 1.0 5.0 0.00 0.09 0.00 81 1011.8
20210805220517 58 241 1.0 5.0 0.00 0.09 0.00 81 1011.9
20210805220309 58 232 1.0 5.0 0.00 0.09 0.00 81 1011.9
20210805220102 58 246 0.0 5.0 0.00 0.09 0.00 81 1012.0
20210805215855 58 252 0.0 5.0 0.00 0.09 0.09 81 1012.0
20210805215651 58 246 0.0 5.0 0.00 0.09 0.09 81 1012.0
20210805215442 58 229 1.0 5.0 0.00 0.09 0.09 81 1011.9
20210805215242 58 259 1.0 5.0 0.00 0.09 0.09 81 1012.0
20210805215043 58 227 1.0 5.0 0.00 0.09 0.09 82 1012.0
20210805214839 58 273 1.0 5.0 0.00 0.09 0.09 81 1012.1
20210805214636 58 262 1.0 7.0 0.00 0.09 0.09 82 1012.1
20210805214433 58 274 2.0 7.0 0.00 0.09 0.09 81 1012.1
20210805214225 58 250 1.0 7.0 0.00 0.09 0.09 81 1012.0
20210805214021 58 236 1.0 7.0 0.00 0.09 0.09 81 1012.1
20210805213812 58 233 1.0 7.0 0.00 0.09 0.09 81 1012.1
20210805213613 58 223 1.0 7.0 0.00 0.09 0.09 81 1012.1
20210805213404 58 241 1.0 7.0 0.00 0.09 0.09 81 1012.1
20210805213204 58 244 1.0 7.0 0.00 0.09 0.09 81 1012.1
20210805212959 58 231 1.0 7.0 0.00 0.09 0.09 81 1012.1
20210805212800 58 300 1.0 7.0 0.00 0.09 0.09 81 1012.2
20210805212550 58 278 1.0 8.0 0.00 0.09 0.09 82 1012.2
20210805212351 58 265 1.0 8.0 0.00 0.09 0.09 82 1012.1
20210805212147 58 254 1.0 8.0 0.00 0.09 0.09 82 1012.1
20210805211937 58 247 1.0 8.0 0.00 0.09 0.09 82 1012.0
20210805211733 58 283 1.0 8.0 0.00 0.09 0.09 82 1012.1
20210805211525 58 250 1.0 8.0 0.00 0.09 0.09 82 1012.1
20210805211325 58 241 1.0 8.0 0.00 0.09 0.09 82 1012.1
20210805211115 58 221 2.0 8.0 0.00 0.09 0.09 83 1012.1
20210805210907 58 218 2.0 8.0 0.00 0.09 0.09 83 1012.2
20210805210657 58 238 2.0 8.0 0.00 0.09 0.09 83 1012.2
20210805210453 58 241 2.0 7.0 0.00 0.09 0.09 84 1012.3
20210805210253 58 231 1.0 7.0 0.00 0.09 0.09 84 1012.4
20210805210053 58 257 1.0 4.0 0.00 0.09 0.09 84 1012.3
20210805205853 58 237 1.0 4.0 0.00 0.09 0.09 84 1012.3
20210805205650 58 209 1.0 4.0 0.00 0.09 0.09 84 1012.2
20210805205444 58 226 1.0 4.0 0.00 0.09 0.09 85 1012.3
20210805205243 58 231 1.0 4.0 0.00 0.09 0.09 85 1012.3
20210805205038 58 245 1.0 4.0 0.00 0.09 0.09 85 1012.3
20210805204835 58 347 1.0 4.0 0.00 0.09 0.09 85 1012.4
20210805204626 58 259 1.0 4.0 0.00 0.09 0.09 86 1012.3
20210805204425 58 186 1.0 4.0 0.00 0.09 0.09 86 1012.4
20210805204220 58 243 1.0 4.0 0.00 0.09 0.09 87 1012.4
20210805204018 58 224 1.0 4.0 0.00 0.09 0.09 87 1012.4
20210805203812 58 249 1.0 4.0 0.00 0.09 0.09 87 1012.5
20210805203603 58 223 0.0 5.0 0.00 0.09 0.09 87 1012.4
20210805203357 58 225 0.0 5.0 0.00 0.09 0.09 87 1012.6
20210805203149 58 240 0.0 5.0 0.00 0.09 0.09 88 1012.6
20210805202948 58 215 1.0 5.0 0.00 0.09 0.09 87 1012.6
20210805202748 58 213 1.0 5.0 0.00 0.09 0.09 87 1012.6
20210805202542 58 249 1.0 7.0 0.00 0.09 0.09 87 1012.6
20210805202342 58 233 1.0 7.0 0.00 0.09 0.09 87 1012.6
20210805202132 58 225 0.0 7.0 0.00 0.09 0.09 87 1012.6
20210805201928 58 228 0.0 7.0 0.00 0.09 0.09 87 1012.7
20210805201721 57 247 1.0 7.0 0.00 0.09 0.09 87 1012.6
20210805201513 57 232 1.0 7.0 0.00 0.09 0.09 87 1012.7
20210805201308 57 251 1.0 7.0 0.00 0.09 0.09 87 1012.7
20210805201057 57 225 1.0 7.0 0.00 0.09 0.09 87 1012.6
20210805200850 57 280 2.0 7.0 0.00 0.09 0.09 87 1012.6
20210805200647 57 257 2.0 7.0 0.00 0.09 0.09 87 1012.6
20210805200448 57 250 2.0 5.0 0.00 0.09 0.09 87 1012.5
20210805200238 57 238 1.0 5.0 0.00 0.09 0.09 87 1012.6
20210805200037 57 244 1.0 4.0 0.00 0.09 0.09 87 1012.5
20210805195831 57 246 1.0 4.0 0.00 0.09 0.09 87 1012.6
20210805195622 57 249 1.0 4.0 0.00 0.09 0.09 87 1012.7
20210805195418 57 252 1.0 4.0 0.00 0.09 0.09 86 1012.7
20210805195217 57 228 2.0 5.0 0.00 0.09 0.09 86 1012.7
20210805195007 57 232 2.0 5.0 0.00 0.09 0.09 86 1012.7
20210805194758 57 229 2.0 5.0 0.00 0.09 0.09 86 1012.8
20210805194555 57 247 2.0 5.0 0.00 0.09 0.09 86 1012.7
20210805194356 57 230 3.0 9.0 0.00 0.09 0.09 85 1012.8
20210805194157 57 217 3.0 9.0 0.00 0.09 0.09 85 1012.7
20210805193956 58 221 3.0 9.0 0.00 0.09 0.09 85 1012.7
20210805193753 58 230 3.0 9.0 0.00 0.09 0.09 84 1012.7
20210805193546 58 235 3.0 9.0 0.00 0.09 0.09 84 1012.6
20210805193347 58 241 3.0 9.0 0.00 0.09 0.09 84 1012.6
20210805193140 58 249 3.0 9.0 0.00 0.09 0.09 84 1012.6
20210805192933 58 245 3.0 9.0 0.00 0.09 0.09 84 1012.6
20210805192730 58 247 3.0 9.0 0.00 0.09 0.09 84 1012.5
20210805192520 58 252 3.0 9.0 0.00 0.09 0.09 84 1012.5
20210805192314 57 235 2.0 6.0 0.00 0.09 0.09 84 1012.5
20210805192106 57 211 2.0 7.0 0.00 0.09 0.09 84 1012.6
20210805191858 57 262 2.0 7.0 0.00 0.09 0.09 84 1012.5
20210805191650 58 224 2.0 7.0 0.00 0.09 0.09 84 1012.5
20210805191451 58 255 2.0 7.0 0.00 0.09 0.09 83 1012.5
20210805191244 58 235 2.0 7.0 0.00 0.09 0.09 83 1012.4
20210805191045 58 226 2.0 7.0 0.00 0.09 0.09 82 1012.4
20210805190837 58 218 3.0 7.0 0.00 0.09 0.09 82 1012.3
20210805190633 58 243 3.0 7.0 0.00 0.09 0.09 82 1012.4
20210805190426 58 255 3.0 7.0 0.00 0.09 0.09 82 1012.4
20210805190222 59 255 3.0 7.0 0.00 0.09 0.09 81 1012.5
20210805190019 59 238 3.0 7.0 0.00 0.09 0.09 81 1012.4
20210805185812 59 243 3.0 7.0 0.00 0.09 0.09 81 1012.4
20210805185605 59 227 3.0 7.0 0.00 0.09 0.09 81 1012.4
20210805185404 59 250 3.0 7.0 0.00 0.09 0.09 81 1012.4
20210805185156 59 226 3.0 6.0 0.00 0.09 0.09 81 1012.4
20210805184955 59 249 3.0 6.0 0.00 0.10 0.09 81 1012.3
20210805184747 59 250 3.0 9.0 0.00 0.10 0.09 81 1012.2
20210805184542 59 261 4.0 9.0 0.00 0.10 0.09 81 1012.3
20210805184342 59 245 4.0 9.0 0.00 0.10 0.09 81 1012.2
20210805184138 59 239 4.0 9.0 0.00 0.10 0.09 81 1012.2
20210805183938 59 223 4.0 9.0 0.00 0.10 0.09 81 1012.3
20210805183731 59 262 4.0 9.0 0.00 0.11 0.09 81 1012.2
20210805183520 60 233 3.0 9.0 0.00 0.11 0.09 81 1012.2
20210805183317 60 241 3.0 9.0 0.00 0.11 0.09 81 1012.2
20210805183109 60 253 3.0 9.0 0.00 0.11 0.09 81 1012.2
20210805182909 60 226 3.0 9.0 0.00 0.11 0.09 81 1012.2
20210805182705 60 264 3.0 9.0 0.00 0.11 0.09 80 1012.1
20210805182457 60 229 3.0 9.0 0.00 0.12 0.09 80 1012.1
20210805182248 60 259 3.0 9.0 0.00 0.12 0.09 80 1012.1
20210805182040 61 264 2.0 9.0 0.00 0.12 0.09 79 1012.1
20210805181829 61 247 2.0 9.0 0.00 0.13 0.09 79 1012.1
20210805181621 61 249 2.0 9.0 0.00 0.13 0.09 79 1012.1
20210805181417 62 243 3.0 9.0 0.00 0.14 0.09 78 1012.1
20210805181215 62 255 3.0 9.0 0.00 0.14 0.09 78 1012.2
20210805181010 62 295 3.0 9.0 0.00 0.14 0.09 78 1012.1
20210805180801 62 245 3.0 9.0 0.00 0.14 0.09 78 1012.0
20210805180551 62 281 3.0 9.0 0.00 0.14 0.09 77 1012.1
20210805180350 62 194 3.0 9.0 0.00 0.14 0.09 77 1012.1
20210805180149 62 248 3.0 14.0 0.00 0.15 0.09 77 1012.1
20210805175949 62 236 3.0 14.0 0.00 0.16 0.09 77 1012.1
20210805175742 62 255 3.0 14.0 0.00 0.17 0.09 77 1012.2
20210805175537 62 249 3.0 14.0 0.00 0.18 0.09 76 1012.1
20210805175330 62 246 2.0 14.0 0.00 0.18 0.09 76 1012.1
20210805175122 62 290 3.0 14.0 0.00 0.18 0.09 76 1012.1
20210805174919 63 267 4.0 14.0 0.00 0.18 0.09 76 1012.1
20210805174710 63 242 4.0 14.0 0.00 0.18 0.09 76 1012.1
20210805174501 63 252 4.0 14.0 0.00 0.19 0.09 76 1012.1
20210805174254 63 266 4.0 14.0 0.00 0.19 0.09 76 1012.1
20210805174049 63 272 4.0 10.0 0.00 0.20 0.09 76 1012.1
20210805173841 63 266 4.0 15.0 0.00 0.20 0.09 77 1012.1
20210805173642 63 250 4.0 15.0 0.00 0.20 0.09 77 1012.1
20210805173437 63 249 4.0 15.0 0.00 0.20 0.09 76 1012.1
20210805173234 63 322 4.0 15.0 0.00 0.20 0.09 76 1012.1
20210805173035 63 241 3.0 15.0 0.00 0.21 0.09 76 1012.0
20210805172833 63 337 4.0 15.0 0.00 0.21 0.09 76 1012.0
20210805172625 63 295 4.0 15.0 0.00 0.22 0.09 75 1012.1
20210805172419 63 262 3.0 15.0 0.00 0.22 0.09 76 1012.0
20210805172213 63 243 3.0 15.0 0.00 0.23 0.09 76 1012.0
20210805172011 63 230 3.0 15.0 0.00 0.24 0.09 74 1012.0
20210805171804 63 271 3.0 9.0 0.00 0.24 0.09 76 1011.8
20210805171558 63 279 3.0 9.0 0.00 0.24 0.09 76 1011.9
20210805171358 63 231 3.0 9.0 0.00 0.24 0.09 74 1011.8
20210805171150 63 278 3.0 8.0 0.00 0.25 0.09 75 1011.8
20210805170939 64 258 3.0 8.0 0.00 0.25 0.09 76 1011.8
20210805170730 64 252 2.0 8.0 0.00 0.26 0.09 75 1011.8
20210805170528 64 224 2.0 7.0 0.00 0.27 0.09 77 1011.8
20210805170320 64 245 2.0 7.0 0.00 0.27 0.09 75 1011.9
20210805170111 64 259 3.0 10.0 0.00 0.29 0.09 75 1011.9
20210805165902 63 231 3.0 10.0 0.00 0.29 0.09 75 1011.8
20210805165654 63 238 3.0 10.0 0.00 0.29 0.09 75 1011.8
20210805165445 63 260 4.0 10.0 0.00 0.29 0.09 74 1011.8
20210805165240 63 250 4.0 10.0 0.00 0.29 0.09 73 1011.8
20210805165031 64 241 4.0 11.0 0.00 0.30 0.09 72 1011.8
20210805164821 64 255 3.0 11.0 0.00 0.30 0.09 74 1011.8
20210805164614 64 167 4.0 11.0 0.00 0.31 0.09 71 1011.8
20210805164406 64 222 4.0 11.0 0.00 0.32 0.09 71 1011.8
20210805164202 64 219 4.0 11.0 0.00 0.32 0.09 72 1011.9
20210805163953 64 245 5.0 11.0 0.00 0.33 0.09 72 1011.8
20210805163752 63 226 5.0 11.0 0.00 0.33 0.09 70 1011.8
20210805163547 63 252 5.0 11.0 0.00 0.33 0.09 70 1011.8
20210805163340 64 250 5.0 11.0 0.00 0.34 0.09 70 1011.8
20210805163132 64 241 4.0 11.0 0.00 0.35 0.09 72 1011.7
20210805162932 64 232 4.0 11.0 0.00 0.36 0.09 73 1011.8
20210805162729 64 259 4.0 11.0 0.00 0.37 0.09 75 1011.8
20210805162523 64 253 3.0 11.0 0.00 0.38 0.09 74 1011.8
20210805162323 64 248 3.0 11.0 0.00 0.38 0.09 74 1011.8
20210805162120 64 238 2.0 7.0 0.00 0.39 0.09 75 1011.8
20210805161914 64 283 2.0 7.0 0.00 0.40 0.09 73 1011.9
20210805161713 64 255 2.0 12.0 0.00 0.40 0.09 75 1012.0
20210805161514 64 238 2.0 12.0 0.00 0.41 0.09 77 1012.0
20210805161304 64 250 3.0 12.0 0.00 0.42 0.09 75 1012.0
20210805161053 64 283 4.0 12.0 0.00 0.43 0.09 74 1012.0
20210805160843 64 289 4.0 12.0 0.00 0.44 0.09 76 1012.1
20210805160643 63 266 5.0 12.0 0.00 0.44 0.09 75 1012.1
20210805160433 63 251 5.0 12.0 0.00 0.44 0.09 75 1012.1
20210805160227 63 300 5.0 12.0 0.00 0.46 0.09 75 1012.1
20210805160025 63 251 5.0 12.0 0.00 0.46 0.09 74 1012.1
20210805155818 63 245 5.0 12.0 0.00 0.48 0.09 74 1012.0
20210805155611 63 146 6.0 11.0 0.00 0.48 0.09 75 1012.0
20210805155402 63 210 6.0 16.0 0.00 0.48 0.09 75 1012.1
20210805155153 63 245 6.0 16.0 0.00 0.48 0.09 75 1012.0
20210805154947 63 222 6.0 16.0 0.00 0.48 0.09 74 1012.1
20210805154745 63 191 6.0 16.0 0.00 0.48 0.09 76 1012.1
20210805154544 63 258 6.0 16.0 0.00 0.48 0.09 75 1012.2
20210805154336 63 230 7.0 16.0 0.00 0.48 0.09 75 1012.2
20210805154132 63 257 8.0 16.0 0.00 0.49 0.09 74 1012.2
20210805153923 63 262 8.0 16.0 0.00 0.49 0.09 74 1012.1
20210805153716 63 257 7.0 16.0 0.00 0.49 0.09 74 1012.2
20210805153517 63 244 6.0 16.0 0.00 0.49 0.09 73 1012.2
20210805153313 63 239 5.0 13.0 0.00 0.49 0.09 74 1012.3
20210805153109 64 224 5.0 12.0 0.00 0.49 0.09 77 1012.2
20210805152909 64 259 5.0 12.0 0.00 0.49 0.09 76 1012.3
20210805152710 64 256 5.0 12.0 0.00 0.49 0.09 78 1012.3
20210805152502 63 224 4.0 12.0 0.00 0.49 0.09 79 1012.3
20210805152300 63 231 5.0 13.0 0.00 0.49 0.09 77 1012.3
20210805152051 63 247 5.0 13.0 0.00 0.49 0.09 78 1012.4
20210805151844 63 228 5.0 13.0 0.00 0.49 0.09 81 1012.4
20210805151642 63 246 5.0 13.0 0.00 0.49 0.09 79 1012.4
20210805151436 63 254 5.0 13.0 0.00 0.50 0.09 78 1012.5
20210805151235 63 263 6.0 13.0 0.00 0.50 0.09 80 1012.4
20210805151034 63 238 6.0 13.0 0.00 0.51 0.09 80 1012.5
20210805150831 63 221 6.0 13.0 0.00 0.51 0.09 81 1012.4
20210805150622 63 248 6.0 13.0 0.00 0.52 0.09 80 1012.5
20210805150413 63 264 5.0 11.0 0.00 0.53 0.09 79 1012.5
20210805150208 63 218 5.0 11.0 0.00 0.54 0.09 79 1012.5
20210805150002 63 255 4.0 11.0 0.00 0.55 0.09 78 1012.5
20210805145753 63 266 4.0 10.0 0.00 0.55 0.09 82 1012.6
20210805145546 63 245 4.0 9.0 0.00 0.56 0.09 81 1012.5
20210805145339 63 212 4.0 13.0 0.00 0.57 0.09 80 1012.6
20210805145133 63 279 5.0 13.0 0.00 0.57 0.09 84 1012.6
20210805144930 63 238 6.0 13.0 0.00 0.57 0.09 84 1012.6
20210805144731 63 240 6.0 13.0 0.00 0.58 0.09 82 1012.6
20210805144521 62 248 7.0 13.0 0.00 0.59 0.09 83 1012.7
20210805144310 62 245 7.0 13.0 0.00 0.59 0.09 83 1012.6
20210805144106 62 274 6.0 13.0 0.00 0.59 0.09 80 1012.6
20210805143900 62 236 5.0 13.0 0.00 0.59 0.09 82 1012.6
20210805143652 63 257 4.0 13.0 0.00 0.59 0.09 81 1012.7
20210805143452 63 238 4.0 13.0 0.00 0.59 0.09 81 1012.7
20210805143251 63 260 4.0 13.0 0.00 0.60 0.09 82 1012.6
20210805143049 63 200 4.0 14.0 0.00 0.60 0.09 82 1012.6
20210805142845 63 285 5.0 14.0 0.00 0.60 0.09 85 1012.6
20210805142638 62 236 6.0 14.0 0.00 0.61 0.09 85 1012.6
20210805142429 62 233 6.0 14.0 0.00 0.61 0.09 82 1012.6
20210805142225 62 243 6.0 14.0 0.00 0.61 0.09 82 1012.6
20210805142024 62 256 7.0 14.0 0.00 0.62 0.09 83 1012.6
20210805141813 62 252 6.0 14.0 0.00 0.62 0.09 81 1012.7
20210805141609 62 226 6.0 14.0 0.00 0.62 0.09 81 1012.7
20210805141407 62 253 6.0 14.0 0.00 0.62 0.09 84 1012.7
20210805141205 62 240 5.0 14.0 0.00 0.62 0.09 83 1012.7
20210805140956 62 240 5.0 12.0 0.00 0.62 0.09 86 1012.7
20210805140745 62 254 5.0 12.0 0.00 0.62 0.09 87 1012.7
20210805140536 61 291 5.0 11.0 0.00 0.62 0.09 85 1012.8
20210805140336 62 255 5.0 11.0 0.00 0.62 0.09 85 1012.9
20210805140129 62 240 5.0 13.0 0.00 0.62 0.09 85 1012.9
20210805135925 62 236 4.0 13.0 0.00 0.63 0.09 87 1012.9
20210805135717 62 283 4.0 13.0 0.00 0.63 0.09 88 1012.9
20210805135512 61 266 4.0 13.0 0.00 0.63 0.09 87 1012.8
20210805135311 61 257 4.0 13.0 0.00 0.63 0.09 87 1012.8
20210805135112 61 250 4.0 13.0 0.00 0.63 0.09 87 1012.8
20210805134912 61 233 5.0 13.0 0.00 0.63 0.09 87 1012.7
20210805134707 61 323 5.0 13.0 0.00 0.63 0.09 86 1012.8
20210805134505 61 252 6.0 13.0 0.00 0.63 0.09 85 1012.9
20210805134302 61 244 6.0 13.0 0.00 0.64 0.09 87 1012.9
20210805134057 61 236 6.0 11.0 0.00 0.64 0.09 87 1012.8
20210805133858 61 242 5.0 11.0 0.00 0.64 0.09 87 1012.9
20210805133650 62 248 5.0 11.0 0.00 0.64 0.09 85 1012.8
20210805133446 62 243 5.0 16.0 0.00 0.64 0.09 85 1013.0
20210805133241 62 266 4.0 16.0 0.00 0.65 0.09 88 1012.9
20210805133031 62 261 4.0 16.0 0.00 0.65 0.09 89 1012.8
20210805132829 62 214 6.0 16.0 0.00 0.65 0.09 89 1012.9
20210805132623 62 231 6.0 16.0 0.00 0.65 0.09 87 1012.9
20210805132424 62 264 6.0 16.0 0.00 0.65 0.09 90 1012.9
20210805132223 62 280 7.0 16.0 0.00 0.65 0.09 90 1012.8
20210805132020 61 251 7.0 16.0 0.00 0.65 0.09 88 1012.9
20210805131819 61 264 6.0 16.0 0.00 0.66 0.09 88 1012.9
20210805131619 61 291 6.0 16.0 0.00 0.66 0.09 89 1012.9
20210805131414 61 279 6.0 12.0 0.00 0.66 0.09 92 1012.9
20210805131211 61 245 5.0 12.0 0.00 0.66 0.09 90 1012.8
20210805131004 61 251 5.0 12.0 0.00 0.66 0.09 91 1012.9
20210805130800 60 245 4.0 12.0 0.00 0.66 0.09 90 1013.0
20210805130559 61 205 4.0 12.0 0.00 0.66 0.09 89 1013.0
20210805130356 61 219 4.0 12.0 0.00 0.67 0.09 90 1013.1
20210805130146 61 226 3.0 12.0 0.00 0.67 0.09 89 1013.1
20210805125940 61 252 2.0 12.0 0.00 0.69 0.09 91 1013.1
20210805125734 61 257 2.0 12.0 0.00 0.69 0.09 92 1013.1
20210805125527 61 245 2.0 12.0 0.00 0.69 0.09 91 1013.0
20210805125320 61 264 2.0 10.0 0.00 0.70 0.09 93 1013.1
20210805125116 61 232 3.0 10.0 0.00 0.70 0.09 91 1013.1
20210805124906 61 282 3.0 10.0 0.00 0.70 0.09 93 1013.1
20210805124702 61 276 3.0 10.0 0.00 0.70 0.09 92 1013.1
20210805124458 60 256 3.0 10.0 0.00 0.70 0.09 92 1013.2
20210805124249 60 247 3.0 10.0 0.00 0.70 0.09 94 1013.2
20210805124043 60 217 3.0 10.0 0.00 0.70 0.09 94 1013.2
20210805123833 60 298 3.0 10.0 0.00 0.70 0.09 93 1013.2
20210805123622 60 245 3.0 10.0 0.00 0.70 0.09 94 1013.2
20210805123418 59 248 3.0 10.0 0.00 0.70 0.09 95 1013.2
20210805123217 59 255 3.0 10.0 0.00 0.70 0.09 93 1013.2
20210805123010 59 260 3.0 10.0 0.00 0.70 0.09 94 1013.3
20210805122806 59 271 4.0 10.0 0.03 0.70 0.09 93 1013.3
20210805122557 59 238 3.0 9.0 0.03 0.70 0.09 94 1013.2
20210805122351 59 264 3.0 10.0 0.03 0.70 0.09 94 1013.3
20210805122146 59 283 3.0 10.0 0.04 0.70 0.09 94 1013.2
20210805121936 59 266 3.0 10.0 0.05 0.70 0.09 96 1013.2
20210805121728 59 233 3.0 10.0 0.07 0.70 0.09 96 1013.2
20210805121518 58 248 3.0 10.0 0.11 0.70 0.09 96 1013.2
20210805121310 58 245 3.0 10.0 0.28 0.71 0.09 96 1013.2
20210805121103 58 249 3.0 10.0 0.00 0.70 0.08 96 1013.2
20210805120857 58 241 3.0 10.0 0.00 0.70 0.07 95 1013.3
20210805120654 58 235 2.0 10.0 0.00 0.70 0.07 95 1013.2
20210805120448 58 223 2.0 10.0 0.00 0.70 0.07 95 1013.2
20210805120243 58 286 1.0 6.0 0.00 0.70 0.07 95 1013.2
20210805120034 58 254 1.0 6.0 0.00 0.70 0.07 95 1013.3
20210805115826 58 240 2.0 11.0 0.00 0.70 0.07 96 1013.2
20210805115616 58 261 3.0 11.0 0.00 0.70 0.07 96 1013.3
20210805115416 58 215 3.0 11.0 0.00 0.70 0.07 95 1013.3
20210805115216 58 257 4.0 11.0 0.00 0.70 0.07 95 1013.3
20210805115011 58 240 4.0 12.0 0.00 0.70 0.07 95 1013.3
20210805114803 58 231 5.0 12.0 0.00 0.71 0.07 95 1013.4
20210805114559 58 250 5.0 12.0 0.00 0.71 0.07 96 1013.3
20210805114358 57 248 5.0 12.0 0.00 0.72 0.07 95 1013.3
20210805114150 57 255 5.0 12.0 0.00 0.72 0.07 94 1013.3
20210805113951 57 247 6.0 12.0 0.00 0.72 0.07 95 1013.3
20210805113752 57 253 6.0 12.0 0.00 0.73 0.07 95 1013.3
20210805113544 57 229 6.0 12.0 0.00 0.74 0.07 94 1013.3
20210805113344 57 253 6.0 12.0 0.00 0.74 0.07 95 1013.4
20210805113144 57 248 5.0 12.0 0.00 0.74 0.07 94 1013.3
20210805112937 57 221 5.0 11.0 0.00 0.74 0.07 94 1013.3
20210805112732 57 232 5.0 11.0 0.00 0.74 0.07 94 1013.2
20210805112526 57 186 5.0 11.0 0.00 0.74 0.07 94 1013.3
20210805112323 57 262 5.0 11.0 0.00 0.75 0.07 95 1013.4
20210805112123 57 259 5.0 11.0 0.00 0.75 0.07 94 1013.4
20210805111917 57 240 5.0 11.0 0.00 0.76 0.07 95 1013.3
20210805111713 57 342 4.0 11.0 0.00 0.77 0.07 95 1013.3
20210805111511 57 255 4.0 11.0 0.00 0.77 0.07 95 1013.4
20210805111310 57 252 4.0 12.0 0.00 0.77 0.07 94 1013.3
20210805111101 57 211 4.0 12.0 0.00 0.78 0.07 95 1013.3
20210805110901 57 257 4.0 12.0 0.00 0.78 0.07 95 1013.3
20210805110652 57 228 5.0 12.0 0.00 0.79 0.07 95 1013.3
20210805110448 57 248 5.0 12.0 0.00 0.79 0.07 96 1013.2
20210805110248 57 250 5.0 12.0 0.00 0.79 0.07 96 1013.2
20210805110041 57 238 6.0 12.0 0.00 0.80 0.07 95 1013.3
20210805105835 57 231 5.0 12.0 0.00 0.80 0.07 95 1013.2
20210805105626 57 302 5.0 12.0 0.00 0.81 0.07 96 1013.3
20210805105424 57 236 5.0 12.0 0.00 0.81 0.07 96 1013.3
20210805105217 57 257 4.0 11.0 0.00 0.81 0.07 96 1013.3
20210805105013 57 271 4.0 11.0 0.00 0.81 0.07 96 1013.3
20210805104810 57 255 4.0 11.0 0.00 0.81 0.07 96 1013.2
20210805104607 57 256 4.0 11.0 0.00 0.81 0.07 96 1013.3
20210805104407 57 262 4.0 11.0 0.00 0.81 0.07 96 1013.3
20210805104157 57 255 4.0 11.0 0.00 0.82 0.07 96 1013.2
20210805103957 57 246 4.0 11.0 0.00 0.82 0.07 96 1013.3
20210805103748 57 207 5.0 11.0 0.00 0.83 0.07 96 1013.1
20210805103542 57 236 5.0 11.0 0.00 0.83 0.07 97 1013.2
20210805103342 57 235 5.0 11.0 0.00 0.83 0.07 96 1013.2
20210805103143 57 249 5.0 11.0 0.00 0.83 0.07 96 1013.2
20210805102934 57 250 5.0 11.0 0.00 0.83 0.07 96 1013.2
20210805102732 57 261 5.0 11.0 0.00 0.83 0.07 96 1013.2
20210805102527 57 236 5.0 10.0 0.00 0.83 0.07 96 1013.2
20210805102319 57 251 4.0 9.0 0.00 0.84 0.07 96 1013.2
20210805102109 57 281 3.0 8.0 0.00 0.84 0.07 96 1013.3
20210805101859 57 221 3.0 8.0 0.00 0.85 0.07 97 1013.2
20210805101700 57 221 3.0 8.0 0.00 0.85 0.07 96 1013.3
20210805101455 57 317 3.0 8.0 0.00 0.85 0.07 97 1013.2
20210805101249 57 252 4.0 8.0 0.00 0.85 0.07 96 1013.2
20210805101038 57 269 3.0 8.0 0.00 0.85 0.07 96 1013.2
20210805100834 57 253 3.0 9.0 0.00 0.85 0.07 96 1013.2
20210805100628 57 255 3.0 9.0 0.00 0.86 0.07 96 1013.1
20210805100418 57 258 3.0 9.0 0.00 0.86 0.07 96 1013.2
20210805100207 57 208 3.0 9.0 0.00 0.86 0.07 96 1013.2
20210805100008 57 259 3.0 9.0 0.00 0.87 0.07 97 1013.2
20210805095800 57 250 3.0 9.0 0.00 0.87 0.07 97 1013.3
20210805095553 57 249 3.0 9.0 0.00 0.88 0.07 97 1013.2
20210805095347 57 236 2.0 9.0 0.00 0.88 0.07 97 1013.2
20210805095146 57 284 3.0 9.0 0.00 0.88 0.07 97 1013.2
20210805094941 57 243 3.0 10.0 0.00 0.89 0.07 97 1013.2
20210805094736 57 241 3.0 10.0 0.00 0.89 0.07 97 1013.2
20210805094532 57 240 3.0 10.0 0.00 0.89 0.07 97 1013.2
20210805094331 57 214 4.0 10.0 0.00 0.89 0.07 97 1013.2
20210805094133 57 284 3.0 10.0 0.00 0.90 0.07 97 1013.1
20210805093925 57 214 4.0 10.0 0.00 0.90 0.07 97 1013.2
20210805093714 57 254 4.0 10.0 0.00 0.91 0.07 97 1013.3
20210805093514 57 278 4.0 10.0 0.00 0.91 0.07 97 1013.2
20210805093308 56 236 4.0 10.0 0.00 0.91 0.07 97 1013.1
20210805093102 56 255 4.0 10.0 0.00 0.92 0.07 97 1013.1
20210805092857 56 243 4.0 9.0 0.00 0.92 0.07 97 1013.2
20210805092654 56 277 4.0 9.0 0.00 0.92 0.07 97 1013.1
20210805092445 56 271 4.0 9.0 0.00 0.92 0.07 97 1013.1
20210805092242 56 247 4.0 9.0 0.03 0.92 0.07 97 1013.1
20210805092038 56 240 4.0 9.0 0.03 0.92 0.07 97 1013.1
20210805091832 56 252 4.0 9.0 0.03 0.93 0.07 97 1013.1
20210805091630 56 260 3.0 9.0 0.04 0.93 0.07 97 1013.1
20210805091430 56 250 3.0 9.0 0.06 0.93 0.07 96 1013.0
20210805091231 56 243 3.0 9.0 0.07 0.93 0.07 97 1013.1
20210805091028 56 240 3.0 9.0 0.11 0.93 0.07 96 1013.0
20210805090819 56 232 4.0 9.0 0.14 0.94 0.07 96 1013.1
20210805090618 56 245 4.0 9.0 0.12 0.93 0.06 96 1013.1
20210805090412 56 251 3.0 9.0 0.12 0.93 0.06 96 1013.0
20210805090204 56 240 3.0 7.0 0.09 0.92 0.05 96 1013.0
20210805090001 57 261 2.0 7.0 0.09 0.92 0.05 95 1013.0
20210805085750 57 250 2.0 7.0 0.00 0.92 0.04 95 1012.9
20210805085540 57 237 2.0 7.0 0.00 0.92 0.04 95 1012.9
20210805085333 57 270 2.0 6.0 0.00 0.92 0.03 95 1013.0
20210805085132 57 300 2.0 5.0 0.00 0.92 0.03 95 1013.0
20210805084926 57 244 1.0 5.0 0.00 0.92 0.03 95 1013.1
20210805084721 57 243 1.0 5.0 0.00 0.92 0.03 95 1013.0
20210805084513 57 252 1.0 5.0 0.03 0.92 0.03 95 1013.0
20210805084312 57 240 1.0 5.0 0.03 0.92 0.03 96 1013.1
20210805084107 57 167 1.0 5.0 0.03 0.92 0.03 96 1013.0
20210805083905 57 264 1.0 8.0 0.03 0.92 0.03 95 1013.0
20210805083705 57 223 2.0 8.0 0.03 0.92 0.03 95 1012.9
20210805083503 57 285 2.0 8.0 0.03 0.93 0.03 95 1013.0
20210805083302 57 233 2.0 8.0 0.03 0.93 0.03 94 1013.0
20210805083102 57 259 3.0 8.0 0.03 0.94 0.03 94 1013.0
20210805082904 57 219 2.0 8.0 0.03 0.93 0.03 94 1013.0
20210805082700 57 240 2.0 8.0 0.00 0.94 0.03 94 1013.0
20210805082501 58 231 2.0 8.0 0.00 0.94 0.03 94 1013.0
20210805082255 58 235 2.0 8.0 0.00 0.94 0.03 93 1013.0
20210805082048 58 248 3.0 8.0 0.00 0.94 0.03 92 1013.0
20210805081844 58 233 2.0 7.0 0.00 0.94 0.03 92 1012.9
20210805081640 58 248 2.0 7.0 0.00 0.94 0.02 92 1013.0
20210805081441 58 251 2.0 7.0 0.00 0.94 0.02 91 1013.0
20210805081238 58 224 1.0 8.0 0.00 0.94 0.02 91 1012.9
20210805081039 59 226 1.0 8.0 0.00 0.94 0.02 91 1012.9
20210805080835 59 240 1.0 8.0 0.00 0.94 0.02 92 1012.9
20210805080632 59 246 1.0 8.0 0.00 0.95 0.02 92 1012.9
20210805080423 59 217 2.0 8.0 0.00 0.95 0.02 93 1012.9
20210805080215 59 223 2.0 8.0 0.00 0.95 0.02 93 1012.9
20210805080005 59 297 2.0 8.0 0.00 0.95 0.02 93 1012.9
20210805075756 58 236 2.0 8.0 0.00 0.95 0.02 94 1012.9
20210805075549 58 243 3.0 8.0 0.00 0.95 0.02 93 1012.8
20210805075341 58 326 3.0 8.0 0.00 0.96 0.02 94 1012.8
20210805075139 58 262 2.0 7.0 0.00 0.96 0.02 94 1012.8
20210805074938 58 250 3.0 7.0 0.00 0.96 0.02 93 1012.9
20210805074730 58 253 3.0 7.0 0.00 0.96 0.02 93 1012.8
20210805074520 58 243 3.0 5.0 0.00 0.96 0.02 93 1012.8
20210805073505 58 236 2.0 8.0 0.00 0.96 0.02 93 1012.9
20210805073256 58 229 2.0 8.0 0.00 0.96 0.02 94 1012.9
20210805073053 58 251 2.0 8.0 0.00 0.96 0.02 94 1012.9
20210805072848 58 253 2.0 8.0 0.00 0.96 0.02 94 1012.9
20210805072640 58 250 2.0 8.0 0.00 0.97 0.02 94 1012.9
20210805072431 58 240 2.0 8.0 0.00 0.97 0.02 94 1012.9
20210805072231 58 257 2.0 7.0 0.00 0.97 0.02 95 1012.8
20210805072023 57 237 2.0 7.0 0.00 0.97 0.02 95 1012.8
20210805071815 57 221 1.0 7.0 0.00 0.97 0.02 95 1012.8
20210805071609 57 256 1.0 7.0 0.00 0.97 0.02 95 1013.0
20210805071403 57 217 1.0 7.0 0.00 0.98 0.02 95 1012.8
20210805071158 57 256 1.0 7.0 0.00 0.98 0.02 95 1012.9
20210805070949 57 281 1.0 7.0 0.00 0.98 0.02 96 1013.0
20210805070740 57 233 1.0 4.0 0.00 0.98 0.02 96 1013.0
20210805070541 57 254 1.0 4.0 0.00 0.98 0.02 96 1013.0
20210805070332 57 189 1.0 4.0 0.00 0.98 0.02 96 1013.0
20210805070128 56 226 1.0 4.0 0.00 0.98 0.02 96 1012.9
20210805065922 56 262 1.0 4.0 0.00 0.98 0.02 96 1012.9
20210805065718 56 267 1.0 4.0 0.00 0.98 0.02 96 1012.9
20210805065513 56 226 1.0 4.0 0.00 0.98 0.02 96 1012.9
20210805065307 56 250 1.0 4.0 0.00 0.98 0.02 96 1012.9
20210805065105 56 253 1.0 4.0 0.00 0.98 0.02 96 1012.9
20210805064855 56 237 1.0 5.0 0.00 0.98 0.02 97 1012.8
20210805064649 56 264 1.0 5.0 0.00 0.98 0.02 97 1012.8
20210805064444 56 288 1.0 5.0 0.00 0.98 0.02 97 1012.8
20210805064243 56 246 1.0 5.0 0.00 0.98 0.02 97 1012.9
20210805064039 56 240 1.0 5.0 0.00 0.98 0.02 97 1012.9
20210805063834 56 213 1.0 5.0 0.00 0.98 0.02 97 1013.0
20210805063625 56 245 1.0 5.0 0.00 0.98 0.02 97 1012.9
20210805063423 56 193 1.0 5.0 0.00 0.98 0.02 97 1012.9
20210805063222 56 244 1.0 5.0 0.00 0.98 0.02 97 1012.8
20210805063022 56 253 2.0 5.0 0.00 0.98 0.02 97 1012.8
20210805062819 56 221 2.0 5.0 0.00 0.98 0.02 97 1012.8
20210805062610 56 261 1.0 5.0 0.00 0.98 0.02 97 1012.8
20210805062410 56 179 1.0 5.0 0.00 0.98 0.02 96 1012.8
20210805062208 56 221 1.0 5.0 0.00 0.98 0.02 96 1012.8
20210805062009 56 255 1.0 4.0 0.00 0.98 0.02 97 1012.8
20210805061802 56 303 1.0 4.0 0.00 0.98 0.02 97 1012.7
20210805061555 56 226 1.0 7.0 0.00 0.98 0.02 97 1012.7
20210805061355 56 257 1.0 7.0 0.00 0.98 0.02 97 1012.6
20210805061155 56 222 1.0 7.0 0.00 0.98 0.02 97 1012.6
20210805060946 56 265 1.0 7.0 0.00 0.98 0.02 97 1012.7
20210805060744 56 225 1.0 7.0 0.00 0.98 0.02 97 1012.6
20210805060540 56 215 1.0 7.0 0.00 0.98 0.02 97 1012.6
20210805060339 56 217 1.0 7.0 0.00 0.98 0.02 97 1012.8
20210805060134 56 241 1.0 7.0 0.00 0.98 0.02 97 1012.7
20210805055927 56 283 1.0 7.0 0.00 0.98 0.02 97 1012.8
20210805055726 56 220 1.0 7.0 0.00 0.98 0.02 97 1012.8
20210805055520 56 257 1.0 6.0 0.00 0.98 0.02 97 1012.8
20210805055311 56 284 1.0 6.0 0.00 0.98 0.02 97 1012.7
20210805055101 55 232 1.0 6.0 0.00 0.98 0.02 97 1012.7
20210805054850 55 269 1.0 6.0 0.00 0.98 0.02 97 1012.7
20210805054649 55 236 1.0 6.0 0.00 0.98 0.02 97 1012.6
20210805054439 55 258 1.0 6.0 0.00 0.98 0.02 96 1012.6
20210805054233 55 258 1.0 6.0 0.00 0.98 0.02 96 1012.6
20210805054026 56 262 1.0 6.0 0.00 0.98 0.02 97 1012.6
20210805053823 56 238 1.0 6.0 0.00 0.98 0.02 97 1012.6
20210805053622 56 253 1.0 6.0 0.00 0.98 0.02 97 1012.7
20210805053418 56 276 1.0 5.0 0.00 0.98 0.02 97 1012.6
20210805053210 56 245 1.0 5.0 0.00 0.98 0.02 97 1012.6
20210805053009 56 275 1.0 6.0 0.00 0.98 0.02 97 1012.7
20210805052800 56 240 1.0 6.0 0.00 0.98 0.02 97 1012.8
20210805052550 55 236 1.0 6.0 0.00 0.98 0.02 98 1012.8
20210805052346 55 248 1.0 6.0 0.00 0.98 0.02 98 1012.8
20210805052140 55 245 2.0 6.0 0.00 0.98 0.02 98 1012.8
20210805051941 55 235 2.0 6.0 0.00 0.98 0.02 98 1012.7
20210805051740 55 224 2.0 6.0 0.00 0.98 0.02 98 1012.8
20210805051532 55 233 2.0 6.0 0.00 0.98 0.02 98 1012.8
20210805051322 55 226 2.0 6.0 0.00 0.98 0.02 98 1012.8
20210805051121 55 253 2.0 6.0 0.00 0.98 0.02 98 1012.8
20210805050921 55 248 2.0 6.0 0.00 0.98 0.02 98 1012.8
20210805050717 55 245 2.0 6.0 0.00 0.98 0.02 98 1012.8
20210805050511 55 279 2.0 6.0 0.00 0.98 0.02 98 1012.7
20210805050310 55 214 2.0 6.0 0.00 0.98 0.02 98 1012.8
20210805050101 55 232 2.0 6.0 0.00 0.98 0.02 98 1012.8
20210805045859 55 277 2.0 6.0 0.00 0.98 0.02 98 1012.8
20210805045650 55 240 1.0 4.0 0.00 0.98 0.02 98 1012.8
20210805045449 55 245 1.0 5.0 0.00 0.98 0.02 98 1012.8
20210805045245 55 270 1.0 5.0 0.00 0.98 0.02 98 1012.9
20210805045040 55 240 1.0 5.0 0.00 0.98 0.02 98 1012.8
20210805044836 55 245 1.0 5.0 0.00 0.98 0.02 98 1012.8
20210805044627 55 232 1.0 5.0 0.00 0.98 0.02 98 1012.9
20210805044418 55 241 1.0 6.0 0.00 0.98 0.02 98 1012.8
20210805044209 55 220 1.0 6.0 0.00 0.98 0.02 98 1012.9
20210805044000 55 252 2.0 6.0 0.00 0.98 0.02 98 1012.9
20210805043756 55 248 2.0 6.0 0.00 0.98 0.02 98 1012.9
20210805043556 55 244 2.0 6.0 0.00 0.98 0.02 98 1012.9
20210805043353 55 266 2.0 7.0 0.00 0.98 0.02 98 1012.8
20210805043152 55 243 2.0 7.0 0.00 0.98 0.02 98 1012.8
20210805042949 55 262 2.0 7.0 0.00 0.98 0.02 98 1012.9
20210805042747 55 221 2.0 7.0 0.00 0.98 0.02 98 1012.9
20210805042544 55 263 2.0 7.0 0.00 0.98 0.02 98 1012.9
20210805042345 55 257 2.0 7.0 0.00 0.98 0.02 98 1012.9
20210805042136 55 238 2.0 7.0 0.00 0.98 0.02 98 1012.9
20210805041928 55 212 2.0 7.0 0.00 0.98 0.02 97 1012.8
20210805041727 55 248 2.0 7.0 0.00 0.98 0.02 97 1012.8
20210805041519 55 257 1.0 6.0 0.00 0.98 0.02 97 1012.7
20210805041313 54 240 1.0 6.0 0.00 0.98 0.02 97 1012.8
20210805041103 54 232 1.0 6.0 0.00 0.98 0.02 97 1012.8
20210805040853 54 237 1.0 6.0 0.00 0.98 0.02 98 1012.7
20210805040649 54 279 1.0 6.0 0.00 0.98 0.02 98 1012.8
20210805040441 54 207 1.0 6.0 0.00 0.98 0.02 98 1012.8
20210805040237 54 294 1.0 5.0 0.00 0.98 0.02 98 1012.8
20210805040035 54 221 1.0 5.0 0.00 0.98 0.02 98 1012.8
20210805035832 54 296 1.0 5.0 0.00 0.98 0.02 98 1012.9
20210805035622 54 216 1.0 5.0 0.00 0.98 0.02 98 1012.9
20210805035417 54 272 1.0 5.0 0.00 0.98 0.02 98 1012.8
20210805035213 54 242 2.0 5.0 0.00 0.98 0.02 98 1012.8
20210805035008 54 214 2.0 5.0 0.00 0.98 0.02 98 1012.9
20210805034800 54 203 2.0 5.0 0.00 0.98 0.02 98 1012.8
20210805034558 54 250 2.0 5.0 0.00 0.98 0.02 98 1012.9
20210805034349 54 285 2.0 5.0 0.00 0.98 0.02 98 1012.9
20210805034144 54 158 2.0 5.0 0.00 0.98 0.02 98 1012.8
20210805033937 54 248 2.0 5.0 0.00 0.98 0.02 98 1012.9
20210805033732 54 264 2.0 5.0 0.00 0.98 0.02 98 1013.0
20210805033522 54 259 2.0 4.0 0.00 0.98 0.02 98 1012.8
20210805033319 54 238 2.0 4.0 0.00 0.98 0.02 98 1012.9
20210805033117 54 251 2.0 4.0 0.00 0.98 0.02 98 1012.9
20210805032907 54 236 2.0 4.0 0.00 0.98 0.02 98 1013.0
20210805032701 54 249 1.0 4.0 0.00 0.98 0.02 98 1012.9
20210805032456 54 239 1.0 4.0 0.00 0.98 0.02 98 1013.0
20210805032253 54 276 1.0 4.0 0.00 0.98 0.02 98 1013.0
20210805032052 54 252 1.0 4.0 0.00 0.98 0.02 98 1012.9
20210805031846 54 220 1.0 4.0 0.00 0.98 0.02 98 1013.0
20210805031642 54 259 0.0 3.0 0.00 0.98 0.02 98 1013.0
20210805031441 55 265 0.0 3.0 0.00 0.98 0.02 98 1013.0
20210805031240 55 226 0.0 3.0 0.00 0.98 0.02 98 1013.0
20210805031037 55 233 0.0 3.0 0.00 0.98 0.02 98 1013.1
20210805030832 55 229 0.0 3.0 0.00 0.98 0.02 98 1013.1
20210805030629 55 126 0.0 3.0 0.00 0.98 0.02 98 1013.1
20210805030425 55 251 0.0 3.0 0.00 0.98 0.02 98 1013.1
20210805030220 55 240 0.0 5.0 0.00 0.98 0.02 98 1013.2
20210805030016 55 176 0.0 5.0 0.00 0.98 0.02 98 1013.2
20210805025814 55 240 1.0 5.0 0.00 0.98 0.02 98 1013.2
20210805025608 55 243 1.0 5.0 0.00 0.98 0.02 98 1013.2
20210805025407 55 207 1.0 5.0 0.00 0.98 0.02 98 1013.1
20210805025208 55 217 1.0 5.0 0.00 0.98 0.02 98 1013.1